Change the Weather History Date:

Tuesday, May 14, 2013

  Actual Average Record
Temperature  
Mean Temperature 49 °F -  
Max Temperature 59 °F 65 °F 84 °F (1998)
Min Temperature 39 °F 46 °F 35 °F (1987)
Degree Days  
Heating Degree Days 16    
Moisture  
Dew Point 29 °F    
Average Humidity 50    
Maximum Humidity 76    
Minimum Humidity 24    
Precipitation  
Precipitation 0.00 in - - ()
Sea Level Pressure  
Sea Level Pressure 30.07 in    
Wind  
Wind Speed 8 mph (WNW)    
Max Wind Speed 14 mph    
Max Gust Speed 21 mph    
Visibility 10 miles    
Events      
Averages and records for this station are not official NWS values.
T = Trace of Precipitation, MM = Missing Value Source: NWS Daily Summary

Daily Weather History Graph

Daily Weather History Graph

Search for Another Location

Airport or City:

Trip Planner

Search our weather history database for the weather conditions in past years. The results will help you decide how hot, cold, wet, or windy it might be!

Date:

Astronomy

May. 14, 2013 Rise Set
Actual Time 5:37 AM EDT 8:05 PM EDT
Civil Twilight 5:06 AM EDT 8:36 PM EDT
Nautical Twilight 4:27 AM EDT 9:15 PM EDT
Astronomical Twilight 3:44 AM EDT 9:59 PM EDT
Moon 9:14 AM EDT (5/14) 11:50 PM EDT (5/14)
Length of Visible Light 15h 30m
Length of Day
14h 27m
Waxing Crescent, 19% of the Moon is Illuminated
May 14
Waxing Crescent
May 18
First Quarter
May 25
Full
May 31
Last Quarter
Jun 8
New

Hourly Weather History & Observations

Time (EDT) Temp. Windchill Dew Point Humidity Pressure Visibility Wind Dir Wind Speed Gust Speed Precip Events Conditions
12:56 AM 42.1 °F 37.7 °F 34.0 °F 73% 30.10 in 10.0 mi NW 6.9 mph - N/A   Clear
1:56 AM 41.0 °F 36.4 °F 32.0 °F 70% 30.09 in 10.0 mi NW 6.9 mph - N/A   Clear
2:56 AM 39.0 °F 34.8 °F 30.9 °F 73% 30.09 in 10.0 mi NW 5.8 mph - N/A   Clear
3:56 AM 41.0 °F 35.8 °F 32.0 °F 70% 30.09 in 10.0 mi WNW 8.1 mph - N/A   Clear
4:56 AM 41.0 °F 34.7 °F 32.0 °F 70% 30.09 in 10.0 mi NW 10.4 mph - N/A   Clear
5:56 AM 39.9 °F 32.9 °F 30.9 °F 70% 30.09 in 10.0 mi WNW 11.5 mph - N/A   Clear
6:56 AM 42.1 °F 35.7 °F 30.9 °F 65% 30.11 in 10.0 mi NW 11.5 mph - N/A   Clear
7:56 AM 45.0 °F 40.1 °F 30.9 °F 58% 30.11 in 10.0 mi NW 9.2 mph - N/A   Clear
8:56 AM 48.9 °F - 32.0 °F 52% 30.12 in 10.0 mi WNW 9.2 mph - N/A   Clear
9:56 AM 51.1 °F - 30.9 °F 46% 30.10 in 10.0 mi WNW 10.4 mph - N/A   Clear
10:56 AM 52.0 °F - 30.0 °F 43% 30.10 in 10.0 mi NW 11.5 mph - N/A   Scattered Clouds
11:56 AM 54.0 °F - 27.0 °F 35% 30.09 in 10.0 mi WNW 11.5 mph 17.3 mph N/A   Clear
12:56 PM 54.0 °F - 25.0 °F 33% 30.08 in 10.0 mi West 11.5 mph - N/A   Partly Cloudy
1:56 PM 57.0 °F - 27.0 °F 32% 30.07 in 10.0 mi WNW 13.8 mph 20.7 mph N/A   Scattered Clouds
2:56 PM 57.0 °F - 25.0 °F 29% 30.06 in 10.0 mi WNW 12.7 mph 16.1 mph N/A   Partly Cloudy
3:56 PM 55.9 °F - 24.1 °F 29% 30.04 in 10.0 mi West 8.1 mph - N/A   Clear
4:56 PM 59.0 °F - 24.1 °F 26% 30.03 in 10.0 mi West 8.1 mph - N/A   Partly Cloudy
5:56 PM 57.9 °F - 23.0 °F 26% 30.02 in 10.0 mi NNW 6.9 mph - N/A   Clear
6:56 PM 57.0 °F - 19.9 °F 24% 30.02 in 10.0 mi WNW 5.8 mph - N/A   Clear
7:56 PM 52.0 °F - 27.0 °F 38% 30.03 in 10.0 mi Calm Calm - N/A   Clear
8:56 PM 50.0 °F - 25.0 °F 38% 30.04 in 10.0 mi Calm Calm - N/A   Clear
9:56 PM 46.0 °F 44.8 °F 30.0 °F 54% 30.06 in 10.0 mi South 3.5 mph - N/A   Clear
10:56 PM 45.0 °F - 37.0 °F 74% 30.06 in 10.0 mi Calm Calm - N/A   Clear
11:56 PM 46.0 °F 44.8 °F 39.0 °F 76% 30.07 in 10.0 mi South 3.5 mph - N/A   Clear